Weather History for Sacramento / Mc Clellan, CA

Change the Weather History Date:

Monday, April 8, 2013

  Actual Average (KMHR) Record (KMHR)
Temperature  
Mean Temperature 57 °F -  
Max Temperature 66 °F 65 °F 84 °F (2014)
Min Temperature 48 °F 41 °F 32 °F (2011)
Degree Days  
Heating Degree Days 8    
Growing Degree Days 7 (Base 50)    
Moisture  
Dew Point 35 °F    
Average Humidity 50    
Maximum Humidity 94    
Minimum Humidity 24    
Precipitation  
Precipitation 0.00 in - - ()
Sea Level Pressure  
Sea Level Pressure 29.88 in    
Wind  
Wind Speed 15 mph (NW)    
Max Wind Speed 32 mph    
Max Gust Speed 43 mph    
Visibility 10 miles    
Events Rain    
Averages and records for this station are not official NWS values.
T = Trace of Precipitation, MM = Missing Value Source: NWS Daily Summary

Daily Weather History Graph

Daily Weather History Graph

Search for Another Location

Airport:

Trip Planner

Search our weather history database for the weather conditions in past years. The results will help you decide how hot, cold, wet, or windy it might be!

Date:

Astronomy

Apr. 08, 2013 Rise Set
Actual Time 6:39 AM PDT 7:36 PM PDT
Civil Twilight 6:12 AM PDT 8:03 PM PDT
Nautical Twilight 5:39 AM PDT 8:35 PM PDT
Astronomical Twilight 5:06 AM PDT 9:08 PM PDT
Moon 5:31 AM PDT (4/8) 6:16 PM PDT (4/8)
Length of Visible Light 13h 51m
Length of Day
12h 56m
Waning Crescent, 3% of the Moon is Illuminated
Apr 8
Waning Crescent
Apr 10
New
Apr 18
First Quarter
Apr 25
Full
May 2
Last Quarter

Hourly Weather History & Observations

Time (PDT) Temp. Dew Point Humidity Pressure Visibility Wind Dir Wind Speed Gust Speed Precip Events Conditions
12:05 AM 51.8 °F 46.4 °F 82% 29.81 in 10.0 mi South 11.5 mph - N/A   Mostly Cloudy
12:25 AM 51.8 °F 46.4 °F 82% 29.79 in 10.0 mi South 10.4 mph - N/A   Scattered Clouds
12:45 AM 51.8 °F 46.4 °F 82% 29.77 in 8.0 mi South 11.5 mph - N/A   Mostly Cloudy
1:05 AM 50.0 °F 48.2 °F 94% 29.77 in 5.0 mi South 9.2 mph - N/A Rain Light Rain
1:25 AM 50.0 °F 48.2 °F 94% 29.76 in 10.0 mi South 8.1 mph - N/A   Mostly Cloudy
1:45 AM 50.0 °F 48.2 °F 94% 29.76 in 10.0 mi SSW 4.6 mph - N/A   Mostly Cloudy
2:05 AM 50.0 °F 48.2 °F 94% 29.76 in 10.0 mi South 4.6 mph - N/A   Mostly Cloudy
2:25 AM 50.0 °F 46.4 °F 87% 29.76 in 10.0 mi West 4.6 mph - N/A   Partly Cloudy
2:45 AM 50.0 °F 46.4 °F 87% 29.76 in 10.0 mi West 6.9 mph - N/A   Mostly Cloudy
3:05 AM 48.2 °F 41.0 °F 76% 29.75 in 10.0 mi WNW 9.2 mph - N/A   Mostly Cloudy
3:25 AM 50.0 °F 41.0 °F 71% 29.76 in 10.0 mi WNW 13.8 mph - N/A   Mostly Cloudy
3:45 AM 50.0 °F 42.8 °F 76% 29.78 in 10.0 mi NW 15.0 mph 20.7 mph N/A   Overcast
4:05 AM 50.0 °F 44.6 °F 82% 29.79 in 10.0 mi NNW 17.3 mph 23.0 mph N/A   Overcast
4:25 AM 50.0 °F 44.6 °F 82% 29.80 in 10.0 mi NNW 11.5 mph 19.6 mph N/A   Mostly Cloudy
4:45 AM 48.2 °F 44.6 °F 87% 29.80 in 10.0 mi NNW 12.7 mph - N/A   Mostly Cloudy
5:05 AM 48.2 °F 41.0 °F 76% 29.79 in 10.0 mi NNW 12.7 mph 19.6 mph N/A   Scattered Clouds
5:25 AM 48.2 °F 41.0 °F 76% 29.79 in 10.0 mi NW 13.8 mph - N/A   Partly Cloudy
5:45 AM 48.2 °F 39.2 °F 71% 29.80 in 10.0 mi NW 13.8 mph - N/A   Clear
6:05 AM 48.2 °F 39.2 °F 71% 29.80 in 10.0 mi NW 12.7 mph 18.4 mph N/A   Partly Cloudy
6:25 AM 48.2 °F 37.4 °F 66% 29.82 in 10.0 mi NW 12.7 mph 17.3 mph N/A   Mostly Cloudy
6:45 AM 48.2 °F 33.8 °F 58% 29.83 in 10.0 mi NNW 15.0 mph 23.0 mph N/A   Scattered Clouds
7:05 AM 48.2 °F 32.0 °F 54% 29.84 in 10.0 mi NNW 18.4 mph 23.0 mph N/A   Clear
7:25 AM 48.2 °F 32.0 °F 54% 29.85 in 10.0 mi NW 12.7 mph 18.4 mph N/A   Clear
7:45 AM 50.0 °F 32.0 °F 50% 29.86 in 10.0 mi NNW 20.7 mph 29.9 mph N/A   Clear
8:05 AM 50.0 °F 32.0 °F 50% 29.86 in 10.0 mi NNW 27.6 mph 34.5 mph N/A   Clear
8:25 AM 51.8 °F 32.0 °F 47% 29.86 in 10.0 mi NNW 31.1 mph 42.6 mph N/A   Clear
8:45 AM 53.6 °F 32.0 °F 44% 29.87 in 10.0 mi NNW 24.2 mph 35.7 mph N/A   Clear
9:05 AM 53.6 °F 32.0 °F 44% 29.88 in 10.0 mi NNW 31.1 mph 40.3 mph N/A   Clear
9:25 AM 55.4 °F 32.0 °F 41% 29.88 in 10.0 mi NNW 24.2 mph 42.6 mph N/A   Clear
9:45 AM 55.4 °F 32.0 °F 41% 29.89 in 10.0 mi NNW 32.2 mph 42.6 mph N/A   Clear
10:05 AM 55.4 °F 32.0 °F 41% 29.90 in 10.0 mi NNW 28.8 mph 40.3 mph N/A   Clear
10:25 AM 57.2 °F 32.0 °F 38% 29.91 in 10.0 mi NNW 32.2 mph 40.3 mph N/A   Clear
10:45 AM 57.2 °F 32.0 °F 38% 29.91 in 10.0 mi NNW 31.1 mph 39.1 mph N/A   Clear
11:05 AM 59.0 °F 32.0 °F 36% 29.92 in 10.0 mi NNW 25.3 mph 39.1 mph N/A   Clear
11:25 AM 59.0 °F 33.8 °F 39% 29.92 in 10.0 mi NNW 26.5 mph 38.0 mph N/A   Clear
11:45 AM 60.8 °F 32.0 °F 34% 29.93 in 10.0 mi NW 21.9 mph 28.8 mph N/A   Clear
12:05 PM 60.8 °F 32.0 °F 34% 29.93 in 10.0 mi NNW 23.0 mph 32.2 mph N/A   Clear
12:25 PM 60.8 °F 32.0 °F 34% 29.92 in 10.0 mi NW 23.0 mph 33.4 mph N/A   Clear
12:45 PM 62.6 °F 32.0 °F 32% 29.92 in 10.0 mi NNW 20.7 mph 31.1 mph N/A   Clear
1:05 PM 62.6 °F 32.0 °F 32% 29.92 in 10.0 mi NW 25.3 mph 35.7 mph N/A   Clear
1:25 PM 64.4 °F 32.0 °F 30% 29.91 in 10.0 mi NNW 23.0 mph 35.7 mph N/A   Clear
1:45 PM 64.4 °F 32.0 °F 30% 29.91 in 10.0 mi NNW 23.0 mph 31.1 mph N/A   Clear
2:05 PM 64.4 °F 32.0 °F 30% 29.91 in 10.0 mi NW 19.6 mph 33.4 mph N/A   Clear
2:25 PM 64.4 °F 32.0 °F 30% 29.90 in 10.0 mi NW 24.2 mph 32.2 mph N/A   Clear
2:45 PM 64.4 °F 32.0 °F 30% 29.90 in 10.0 mi NNW 23.0 mph 31.1 mph N/A   Clear
3:05 PM 66.2 °F 32.0 °F 28% 29.90 in 10.0 mi NW 23.0 mph 34.5 mph N/A   Clear
3:25 PM 66.2 °F 32.0 °F 28% 29.90 in 10.0 mi NW 24.2 mph 29.9 mph N/A   Clear
3:45 PM 66.2 °F 32.0 °F 28% 29.89 in 10.0 mi NW 21.9 mph 28.8 mph N/A   Clear
4:05 PM 66.2 °F 30.2 °F 26% 29.89 in 10.0 mi NW 27.6 mph 34.5 mph N/A   Clear
4:25 PM 66.2 °F 32.0 °F 28% 29.90 in 10.0 mi NNW 20.7 mph 32.2 mph N/A   Clear
4:45 PM 66.2 °F 28.4 °F 24% 29.90 in 10.0 mi NW 26.5 mph 29.9 mph N/A   Clear
5:05 PM 66.2 °F 28.4 °F 24% 29.90 in 10.0 mi NW 21.9 mph 32.2 mph N/A   Clear
5:25 PM 66.2 °F 28.4 °F 24% 29.90 in 10.0 mi NW 24.2 mph 27.6 mph N/A   Clear
5:45 PM 66.2 °F 28.4 °F 24% 29.91 in 10.0 mi NNW 19.6 mph 25.3 mph N/A   Clear
6:05 PM 66.2 °F 30.2 °F 26% 29.91 in 10.0 mi NNW 19.6 mph 25.3 mph N/A   Clear
6:25 PM 64.4 °F 30.2 °F 28% 29.92 in 10.0 mi NNW 17.3 mph 24.2 mph N/A   Clear
6:45 PM 64.4 °F 30.2 °F 28% 29.92 in 10.0 mi NNW 16.1 mph 21.9 mph N/A   Clear
7:05 PM 62.6 °F 32.0 °F 32% 29.92 in 10.0 mi NNW 11.5 mph 21.9 mph N/A   Clear
7:25 PM 60.8 °F 32.0 °F 34% 29.93 in 10.0 mi NNW 11.5 mph - N/A   Clear
7:45 PM 59.0 °F 32.0 °F 36% 29.93 in 10.0 mi NW 10.4 mph - N/A   Clear
8:05 PM 59.0 °F 32.0 °F 36% 29.94 in 10.0 mi NNW 11.5 mph - N/A   Clear
8:25 PM 59.0 °F 32.0 °F 36% 29.95 in 10.0 mi NNW 12.7 mph - N/A   Clear
8:45 PM 57.2 °F 32.0 °F 38% 29.96 in 10.0 mi NNW 11.5 mph - N/A   Clear
9:05 PM 57.2 °F 32.0 °F 38% 29.97 in 10.0 mi NNW 12.7 mph - N/A   Clear
9:25 PM 57.2 °F 32.0 °F 38% 29.98 in 10.0 mi NNW 11.5 mph - N/A   Clear
9:45 PM 55.4 °F 33.8 °F 44% 29.99 in 10.0 mi NNW 11.5 mph - N/A   Clear
10:05 PM 55.4 °F 32.0 °F 41% 29.99 in 10.0 mi NNW 12.7 mph 18.4 mph N/A   Clear
10:25 PM 55.4 °F 33.8 °F 44% 30.01 in 10.0 mi NNW 8.1 mph - N/A   Clear
10:45 PM 53.6 °F 35.6 °F 51% 30.01 in 10.0 mi NNW 8.1 mph - N/A   Clear
11:05 PM 51.8 °F 35.6 °F 54% 30.01 in 10.0 mi NNW 6.9 mph - N/A   Clear
11:25 PM 50.0 °F 35.6 °F 58% 30.02 in 10.0 mi North 8.1 mph - N/A   Clear
11:45 PM 48.2 °F 35.6 °F 62% 30.02 in 10.0 mi North 9.2 mph - N/A   Clear